contact:dominique.lefevre@mio.osupytheas.fr, maurice.libes@osupytheas.fr, didier.mallarino@osupytheas.fr
Project:EMSO http://www.emso-fr.org/EMSO-France
Depth: 2436.0 m
Title:EMSO Ligure Ouest : Data MII capteur MICROCAT
DateTime_Computer,Latitude,Longitude,Temperature,Conductivity,Pressure,DateTime_Instrument
DateTime_Computer,Latitude,Longitude,degC,S m-1,dbar,DateTime_Instrument
2020-12-30T00:03:00Z,42.805,6.029,13.2988,4.59986,2470.053,2020-12-30T02:04:00Z
2020-12-30T00:06:03Z,42.805,6.029,13.2983,4.59986,2470.04,2020-12-30T02:07:03Z
2020-12-30T00:09:06Z,42.805,6.029,13.2990,4.59986,2470.017,2020-12-30T02:10:06Z
2020-12-30T00:12:09Z,42.805,6.029,13.2983,4.59986,2470.03,2020-12-30T02:13:09Z
2020-12-30T00:15:12Z,42.805,6.029,13.2979,4.59987,2470.03,2020-12-30T02:16:12Z
2020-12-30T00:18:15Z,42.805,6.029,13.2986,4.59988,2470.017,2020-12-30T02:19:15Z
2020-12-30T00:21:18Z,42.805,6.029,13.2985,4.59988,2470.077,2020-12-30T02:22:18Z
2020-12-30T00:24:21Z,42.805,6.029,13.2982,4.59986,2470.03,2020-12-30T02:25:22Z
2020-12-30T00:27:25Z,42.805,6.029,13.2983,4.59986,2470.04,2020-12-30T02:28:25Z
2020-12-30T00:30:28Z,42.805,6.029,13.2983,4.59988,2470.017,2020-12-30T02:31:28Z
2020-12-30T00:33:31Z,42.805,6.029,13.2991,4.59988,2470.007,2020-12-30T02:34:31Z
2020-12-30T00:36:34Z,42.805,6.029,13.2986,4.59989,2469.993,2020-12-30T02:37:34Z
2020-12-30T00:39:37Z,42.805,6.029,13.2982,4.59988,2470.017,2020-12-30T02:40:37Z
2020-12-30T00:42:40Z,42.805,6.029,13.2986,4.59992,2470.017,2020-12-30T02:43:40Z
2020-12-30T00:45:43Z,42.805,6.029,13.2984,4.59986,2470.053,2020-12-30T02:46:43Z
2020-12-30T00:48:46Z,42.805,6.029,13.2985,4.59989,2469.993,2020-12-30T02:49:47Z
2020-12-30T00:51:50Z,42.805,6.029,13.2984,4.59987,2470.017,2020-12-30T02:52:50Z
2020-12-30T00:54:53Z,42.805,6.029,13.2982,4.59986,2469.993,2020-12-30T02:55:53Z
2020-12-30T00:57:56Z,42.805,6.029,13.2986,4.59988,2470.04,2020-12-30T02:58:56Z
2020-12-30T01:00:59Z,42.805,6.029,13.2988,4.59987,2470.03,2020-12-30T03:01:59Z
2020-12-30T01:04:02Z,42.805,6.029,13.2983,4.59987,2470.017,2020-12-30T03:05:02Z
2020-12-30T01:07:05Z,42.805,6.029,13.2984,4.59986,2470.04,2020-12-30T03:08:05Z
2020-12-30T01:10:08Z,42.805,6.029,13.2984,4.59986,2470.03,2020-12-30T03:11:08Z
2020-12-30T01:13:11Z,42.805,6.029,13.2984,4.59988,2470.03,2020-12-30T03:14:12Z
2020-12-30T01:16:15Z,42.805,6.029,13.2983,4.59986,2470.03,2020-12-30T03:17:15Z
2020-12-30T01:19:18Z,42.805,6.029,13.2985,4.59986,2470.053,2020-12-30T03:20:18Z
2020-12-30T01:22:21Z,42.805,6.029,13.2982,4.59985,2470.03,2020-12-30T03:23:21Z
2020-12-30T01:25:24Z,42.805,6.029,13.2983,4.59986,2470.03,2020-12-30T03:26:24Z
2020-12-30T01:28:27Z,42.805,6.029,13.2983,4.59988,2470.053,2020-12-30T03:29:27Z
2020-12-30T01:31:30Z,42.805,6.029,13.2983,4.59986,2470.017,2020-12-30T03:32:30Z
2020-12-30T01:34:33Z,42.805,6.029,13.2980,4.59985,2470.03,2020-12-30T03:35:33Z
2020-12-30T01:37:36Z,42.805,6.029,13.2979,4.59986,2470.017,2020-12-30T03:38:37Z
2020-12-30T01:40:40Z,42.805,6.029,13.2984,4.59988,2469.97,2020-12-30T03:41:40Z
2020-12-30T01:43:43Z,42.805,6.029,13.2983,4.59985,2470.017,2020-12-30T03:44:43Z
2020-12-30T01:46:46Z,42.805,6.029,13.2982,4.59986,2470.03,2020-12-30T03:47:46Z
2020-12-30T01:49:49Z,42.805,6.029,13.2984,4.59984,2470.053,2020-12-30T03:50:49Z
2020-12-30T01:52:52Z,42.805,6.029,13.2983,4.59986,2470.017,2020-12-30T03:53:52Z
2020-12-30T01:55:55Z,42.805,6.029,13.2984,4.59984,2469.993,2020-12-30T03:56:55Z
2020-12-30T01:58:58Z,42.805,6.029,13.2983,4.59984,2470.053,2020-12-30T03:59:58Z
2020-12-30T02:02:01Z,42.805,6.029,13.2982,4.59987,2469.993,2020-12-30T04:03:02Z
2020-12-30T02:05:05Z,42.805,6.029,13.2983,4.59985,2470.003,2020-12-30T04:06:05Z
2020-12-30T02:08:08Z,42.805,6.029,13.2985,4.59986,2470.03,2020-12-30T04:09:08Z
2020-12-30T02:11:11Z,42.805,6.029,13.2979,4.59984,2470.04,2020-12-30T04:12:11Z
2020-12-30T02:14:14Z,42.805,6.029,13.2983,4.59985,2470.04,2020-12-30T04:15:14Z
2020-12-30T02:17:17Z,42.805,6.029,13.2982,4.59990,2470.017,2020-12-30T04:18:17Z
2020-12-30T02:20:20Z,42.805,6.029,13.2983,4.59985,2470.03,2020-12-30T04:21:20Z
2020-12-30T02:23:23Z,42.805,6.029,13.2978,4.59984,2470.017,2020-12-30T04:24:23Z
2020-12-30T02:26:26Z,42.805,6.029,13.2983,4.59985,2470.04,2020-12-30T04:27:26Z
2020-12-30T02:29:30Z,42.805,6.029,13.2983,4.59986,2469.993,2020-12-30T04:30:30Z
2020-12-30T02:32:33Z,42.805,6.029,13.2982,4.59985,2470.017,2020-12-30T04:33:33Z
2020-12-30T02:35:36Z,42.805,6.029,13.2983,4.59983,2470.04,2020-12-30T04:36:36Z
2020-12-30T02:38:39Z,42.805,6.029,13.2985,4.59985,2470.077,2020-12-30T04:39:39Z
2020-12-30T02:41:42Z,42.805,6.029,13.2983,4.59984,2470.053,2020-12-30T04:42:42Z
2020-12-30T02:44:45Z,42.805,6.029,13.2984,4.59984,2470.04,2020-12-30T04:45:45Z
2020-12-30T02:47:48Z,42.805,6.029,13.2988,4.59984,2470.053,2020-12-30T04:48:48Z
2020-12-30T02:50:51Z,42.805,6.029,13.2981,4.59985,2470.063,2020-12-30T04:51:51Z
2020-12-30T02:53:54Z,42.805,6.029,13.2981,4.59985,2470.04,2020-12-30T04:54:55Z
2020-12-30T02:56:58Z,42.805,6.029,13.2983,4.59988,2470.087,2020-12-30T04:57:58Z
2020-12-30T03:00:01Z,42.805,6.029,13.2983,4.59985,2470.04,2020-12-30T05:01:01Z
2020-12-30T03:03:04Z,42.805,6.029,13.2981,4.59985,2470.087,2020-12-30T05:04:04Z
2020-12-30T03:06:07Z,42.805,6.029,13.2983,4.59984,2470.053,2020-12-30T05:07:07Z
2020-12-30T03:09:10Z,42.805,6.029,13.2982,4.59984,2470.04,2020-12-30T05:10:10Z
2020-12-30T03:12:13Z,42.805,6.029,13.2982,4.59986,2470.077,2020-12-30T05:13:13Z
2020-12-30T03:15:16Z,42.805,6.029,13.2986,4.59983,2470.087,2020-12-30T05:16:16Z
2020-12-30T03:18:19Z,42.805,6.029,13.2979,4.59983,2470.063,2020-12-30T05:19:20Z
2020-12-30T03:21:23Z,42.805,6.029,13.2981,4.59984,2470.063,2020-12-30T05:22:23Z
2020-12-30T03:24:26Z,42.805,6.029,13.2981,4.59985,2470.063,2020-12-30T05:25:26Z
2020-12-30T03:27:29Z,42.805,6.029,13.2979,4.59983,2470.087,2020-12-30T05:28:29Z
2020-12-30T03:30:32Z,42.805,6.029,13.2979,4.59984,2470.087,2020-12-30T05:31:32Z
2020-12-30T03:33:35Z,42.805,6.029,13.2983,4.59984,2470.1,2020-12-30T05:34:35Z
2020-12-30T03:36:38Z,42.805,6.029,13.2983,4.59984,2470.11,2020-12-30T05:37:38Z
2020-12-30T03:39:41Z,42.805,6.029,13.2985,4.59984,2470.087,2020-12-30T05:40:41Z
2020-12-30T03:42:44Z,42.805,6.029,13.2977,4.59983,2470.063,2020-12-30T05:43:45Z
2020-12-30T03:45:48Z,42.805,6.029,13.2983,4.59986,2470.1,2020-12-30T05:46:48Z
2020-12-30T03:48:51Z,42.805,6.029,13.2983,4.59985,2470.11,2020-12-30T05:49:51Z
2020-12-30T03:51:54Z,42.805,6.029,13.2981,4.59986,2470.147,2020-12-30T05:52:54Z
2020-12-30T03:54:57Z,42.805,6.029,13.2983,4.59984,2470.063,2020-12-30T05:55:57Z
2020-12-30T03:58:00Z,42.805,6.029,13.2986,4.59986,2470.124,2020-12-30T05:59:00Z
2020-12-30T04:01:03Z,42.805,6.029,13.2982,4.59984,2470.11,2020-12-30T06:02:03Z
2020-12-30T04:04:06Z,42.805,6.029,13.2985,4.59986,2470.087,2020-12-30T06:05:06Z
2020-12-30T04:07:09Z,42.805,6.029,13.2983,4.59984,2470.161,2020-12-30T06:08:09Z
2020-12-30T04:10:13Z,42.805,6.029,13.2982,4.59987,2470.11,2020-12-30T06:11:13Z
2020-12-30T04:13:16Z,42.805,6.029,13.2981,4.59983,2470.124,2020-12-30T06:14:16Z
2020-12-30T04:16:19Z,42.805,6.029,13.2979,4.59986,2470.156,2020-12-30T06:17:19Z
2020-12-30T04:19:22Z,42.805,6.029,13.2982,4.59984,2470.147,2020-12-30T06:20:22Z
2020-12-30T04:22:25Z,42.805,6.029,13.2982,4.59986,2470.11,2020-12-30T06:23:25Z
2020-12-30T04:25:28Z,42.805,6.029,13.2983,4.59984,2470.11,2020-12-30T06:26:28Z
2020-12-30T04:28:31Z,42.805,6.029,13.2983,4.59984,2470.11,2020-12-30T06:29:31Z
2020-12-30T04:31:34Z,42.805,6.029,13.2981,4.59983,2470.11,2020-12-30T06:32:34Z
2020-12-30T04:34:37Z,42.805,6.029,13.2983,4.59983,2470.147,2020-12-30T06:35:38Z
2020-12-30T04:37:41Z,42.805,6.029,13.2982,4.59984,2470.171,2020-12-30T06:38:41Z
2020-12-30T04:40:44Z,42.805,6.029,13.2983,4.59985,2470.133,2020-12-30T06:41:44Z
2020-12-30T04:43:47Z,42.805,6.029,13.2982,4.59985,2470.133,2020-12-30T06:44:47Z
2020-12-30T04:46:50Z,42.805,6.029,13.2982,4.59983,2470.133,2020-12-30T06:47:50Z
2020-12-30T04:49:53Z,42.805,6.029,13.2982,4.59987,2470.156,2020-12-30T06:50:53Z
2020-12-30T04:52:56Z,42.805,6.029,13.2987,4.59986,2470.171,2020-12-30T06:53:56Z
2020-12-30T04:55:59Z,42.805,6.029,13.2982,4.59984,2470.147,2020-12-30T06:56:59Z
2020-12-30T04:59:02Z,42.805,6.029,13.2980,4.59983,2470.171,2020-12-30T07:00:03Z
2020-12-30T05:02:06Z,42.805,6.029,13.2988,4.59984,2470.217,2020-12-30T07:03:06Z
2020-12-30T05:05:09Z,42.805,6.029,13.2983,4.59986,2470.171,2020-12-30T07:06:09Z
2020-12-30T05:08:12Z,42.805,6.029,13.2986,4.59985,2470.18,2020-12-30T07:09:12Z
2020-12-30T05:11:15Z,42.805,6.029,13.2982,4.59987,2470.18,2020-12-30T07:12:15Z
2020-12-30T05:14:18Z,42.805,6.029,13.2988,4.59984,2470.217,2020-12-30T07:15:18Z
2020-12-30T05:17:21Z,42.805,6.029,13.2979,4.59983,2470.18,2020-12-30T07:18:21Z
2020-12-30T05:20:24Z,42.805,6.029,13.2982,4.59984,2470.217,2020-12-30T07:21:24Z
2020-12-30T05:23:27Z,42.805,6.029,13.2983,4.59985,2470.217,2020-12-30T07:24:28Z
2020-12-30T05:26:31Z,42.805,6.029,13.2981,4.59985,2470.18,2020-12-30T07:27:31Z
2020-12-30T05:29:34Z,42.805,6.029,13.2983,4.59984,2470.24,2020-12-30T07:30:34Z
2020-12-30T05:32:37Z,42.805,6.029,13.2982,4.59984,2470.217,2020-12-30T07:33:37Z
2020-12-30T05:35:40Z,42.805,6.029,13.2983,4.59987,2470.227,2020-12-30T07:36:40Z
2020-12-30T05:38:43Z,42.805,6.029,13.2984,4.59985,2470.203,2020-12-30T07:39:43Z
2020-12-30T05:41:46Z,42.805,6.029,13.2981,4.59987,2470.194,2020-12-30T07:42:46Z
2020-12-30T05:44:49Z,42.805,6.029,13.2980,4.59991,2470.227,2020-12-30T07:45:49Z
2020-12-30T05:47:52Z,42.805,6.029,13.2983,4.59985,2470.25,2020-12-30T07:48:53Z
2020-12-30T05:50:56Z,42.805,6.029,13.2985,4.59986,2470.24,2020-12-30T07:51:56Z
2020-12-30T05:53:59Z,42.805,6.029,13.2982,4.59985,2470.25,2020-12-30T07:54:59Z
2020-12-30T05:57:02Z,42.805,6.029,13.2983,4.59987,2470.227,2020-12-30T07:58:02Z
2020-12-30T06:00:05Z,42.805,6.029,13.2990,4.59985,2470.264,2020-12-30T08:01:05Z
2020-12-30T06:03:08Z,42.805,6.029,13.2983,4.59985,2470.227,2020-12-30T08:04:08Z
2020-12-30T06:06:11Z,42.805,6.029,13.2983,4.59986,2470.24,2020-12-30T08:07:11Z
2020-12-30T06:09:14Z,42.805,6.029,13.2980,4.59985,2470.264,2020-12-30T08:10:14Z
2020-12-30T06:12:17Z,42.805,6.029,13.2990,4.59986,2470.25,2020-12-30T08:13:17Z
2020-12-30T06:15:20Z,42.805,6.029,13.2979,4.59987,2470.25,2020-12-30T08:16:21Z
2020-12-30T06:18:24Z,42.805,6.029,13.2982,4.59984,2470.25,2020-12-30T08:19:24Z
2020-12-30T06:21:27Z,42.805,6.029,13.2983,4.59988,2470.273,2020-12-30T08:22:27Z
2020-12-30T06:24:30Z,42.805,6.029,13.2981,4.59985,2470.264,2020-12-30T08:25:30Z
2020-12-30T06:27:33Z,42.805,6.029,13.2983,4.59991,2470.273,2020-12-30T08:28:33Z
2020-12-30T06:30:36Z,42.805,6.029,13.2982,4.59991,2470.273,2020-12-30T08:31:36Z
2020-12-30T06:33:39Z,42.805,6.029,13.2981,4.59987,2470.25,2020-12-30T08:34:39Z
2020-12-30T06:36:42Z,42.805,6.029,13.2987,4.59986,2470.25,2020-12-30T08:37:42Z
2020-12-30T06:39:45Z,42.805,6.029,13.2983,4.59986,2470.287,2020-12-30T08:40:46Z
2020-12-30T06:42:49Z,42.805,6.029,13.2979,4.59986,2470.25,2020-12-30T08:43:49Z
2020-12-30T06:45:52Z,42.805,6.029,13.2984,4.59986,2470.31,2020-12-30T08:46:52Z
2020-12-30T06:48:55Z,42.805,6.029,13.2981,4.59988,2470.25,2020-12-30T08:49:55Z
2020-12-30T06:51:58Z,42.805,6.029,13.2985,4.59986,2470.273,2020-12-30T08:52:58Z
2020-12-30T06:55:01Z,42.805,6.029,13.2983,4.59986,2470.273,2020-12-30T08:56:01Z
2020-12-30T06:58:04Z,42.805,6.029,13.2981,4.59989,2470.273,2020-12-30T08:59:04Z
2020-12-30T07:01:07Z,42.805,6.029,13.2984,4.59985,2470.287,2020-12-30T09:02:07Z
2020-12-30T07:04:10Z,42.805,6.029,13.2983,4.59990,2470.287,2020-12-30T09:05:11Z
2020-12-30T07:07:14Z,42.805,6.029,13.2988,4.59986,2470.273,2020-12-30T09:08:14Z
2020-12-30T07:10:17Z,42.805,6.029,13.2982,4.59986,2470.297,2020-12-30T09:11:17Z
2020-12-30T07:13:20Z,42.805,6.029,13.2982,4.59988,2470.273,2020-12-30T09:14:20Z
2020-12-30T07:16:23Z,42.805,6.029,13.2982,4.59995,2470.287,2020-12-30T09:17:23Z
2020-12-30T07:19:26Z,42.805,6.029,13.2986,4.59986,2470.25,2020-12-30T09:20:26Z
2020-12-30T07:22:29Z,42.805,6.029,13.2982,4.59986,2470.273,2020-12-30T09:23:29Z
2020-12-30T07:25:32Z,42.805,6.029,13.2986,4.59988,2470.273,2020-12-30T09:26:32Z
2020-12-30T07:28:35Z,42.805,6.029,13.2987,4.59986,2470.287,2020-12-30T09:29:36Z
2020-12-30T07:31:39Z,42.805,6.029,13.2987,4.59986,2470.25,2020-12-30T09:32:39Z
2020-12-30T07:34:42Z,42.805,6.029,13.2982,4.59987,2470.31,2020-12-30T09:35:42Z
2020-12-30T07:37:45Z,42.805,6.029,13.2982,4.59987,2470.287,2020-12-30T09:38:45Z
2020-12-30T07:40:48Z,42.805,6.029,13.2986,4.59986,2470.25,2020-12-30T09:41:48Z
2020-12-30T07:43:51Z,42.805,6.029,13.2983,4.59990,2470.273,2020-12-30T09:44:51Z
2020-12-30T07:46:54Z,42.805,6.029,13.2982,4.59987,2470.287,2020-12-30T09:47:54Z
2020-12-30T07:49:57Z,42.805,6.029,13.2983,4.59988,2470.297,2020-12-30T09:50:57Z
2020-12-30T07:53:00Z,42.805,6.029,13.2982,4.59990,2470.273,2020-12-30T09:54:01Z
2020-12-30T07:56:04Z,42.805,6.029,13.2981,4.59985,2470.25,2020-12-30T09:57:04Z
2020-12-30T07:59:07Z,42.805,6.029,13.2982,4.59986,2470.297,2020-12-30T10:00:07Z
2020-12-30T08:02:10Z,42.805,6.029,13.2981,4.59989,2470.297,2020-12-30T10:03:10Z
2020-12-30T08:05:13Z,42.805,6.029,13.2982,4.59986,2470.297,2020-12-30T10:06:13Z
2020-12-30T08:08:16Z,42.805,6.029,13.2981,4.59988,2470.287,2020-12-30T10:09:16Z
2020-12-30T08:11:19Z,42.805,6.029,13.2984,4.59988,2470.273,2020-12-30T10:12:19Z
2020-12-30T08:14:22Z,42.805,6.029,13.2982,4.59989,2470.287,2020-12-30T10:15:22Z
2020-12-30T08:17:25Z,42.805,6.029,13.2982,4.59987,2470.297,2020-12-30T10:18:25Z
2020-12-30T08:20:29Z,42.805,6.029,13.2978,4.59984,2470.273,2020-12-30T10:21:29Z
2020-12-30T08:23:32Z,42.805,6.029,13.2982,4.59984,2470.31,2020-12-30T10:24:32Z
2020-12-30T08:26:35Z,42.805,6.029,13.2983,4.59991,2470.297,2020-12-30T10:27:35Z
2020-12-30T08:29:38Z,42.805,6.029,13.2981,4.59986,2470.287,2020-12-30T10:30:38Z
2020-12-30T08:32:41Z,42.805,6.029,13.2980,4.59984,2470.31,2020-12-30T10:33:41Z
2020-12-30T08:35:44Z,42.805,6.029,13.2980,4.59985,2470.31,2020-12-30T10:36:44Z
2020-12-30T08:38:47Z,42.805,6.029,13.2980,4.59984,2470.31,2020-12-30T10:39:47Z
2020-12-30T08:41:50Z,42.805,6.029,13.2982,4.59986,2470.287,2020-12-30T10:42:51Z
2020-12-30T08:44:54Z,42.805,6.029,13.2980,4.59985,2470.287,2020-12-30T10:45:54Z
2020-12-30T08:47:57Z,42.805,6.029,13.2983,4.59986,2470.31,2020-12-30T10:48:57Z
2020-12-30T08:51:00Z,42.805,6.029,13.2985,4.59984,2470.297,2020-12-30T10:52:00Z
2020-12-30T08:54:03Z,42.805,6.029,13.2984,4.59984,2470.334,2020-12-30T10:55:03Z
2020-12-30T08:57:06Z,42.805,6.029,13.2982,4.59986,2470.297,2020-12-30T10:58:06Z
2020-12-30T09:00:09Z,42.805,6.029,13.2981,4.59984,2470.297,2020-12-30T11:01:09Z
2020-12-30T09:03:12Z,42.805,6.029,13.2979,4.59987,2470.273,2020-12-30T11:04:12Z
2020-12-30T09:06:15Z,42.805,6.029,13.2983,4.59991,2470.297,2020-12-30T11:07:15Z
2020-12-30T09:09:19Z,42.805,6.029,13.2982,4.59986,2470.297,2020-12-30T11:10:19Z
2020-12-30T09:12:22Z,42.805,6.029,13.2981,4.59984,2470.297,2020-12-30T11:13:22Z
2020-12-30T09:15:25Z,42.805,6.029,13.2981,4.59986,2470.273,2020-12-30T11:16:25Z
2020-12-30T09:18:28Z,42.805,6.029,13.2983,4.59985,2470.273,2020-12-30T11:19:28Z
2020-12-30T09:21:31Z,42.805,6.029,13.2982,4.59988,2470.297,2020-12-30T11:22:31Z
2020-12-30T09:24:34Z,42.805,6.029,13.2980,4.59985,2470.287,2020-12-30T11:25:34Z
2020-12-30T09:27:37Z,42.805,6.029,13.2981,4.59988,2470.273,2020-12-30T11:28:37Z
2020-12-30T09:30:40Z,42.805,6.029,13.2984,4.59986,2470.31,2020-12-30T11:31:41Z
2020-12-30T09:33:44Z,42.805,6.029,13.2982,4.59985,2470.273,2020-12-30T11:34:44Z
2020-12-30T09:36:47Z,42.805,6.029,13.2982,4.59986,2470.273,2020-12-30T11:37:47Z
2020-12-30T09:39:50Z,42.805,6.029,13.2983,4.59986,2470.297,2020-12-30T11:40:50Z
2020-12-30T09:42:53Z,42.805,6.029,13.2979,4.59985,2470.32,2020-12-30T11:43:53Z
2020-12-30T09:45:56Z,42.805,6.029,13.2982,4.59986,2470.297,2020-12-30T11:46:56Z
2020-12-30T09:48:59Z,42.805,6.029,13.2979,4.59986,2470.297,2020-12-30T11:49:59Z
2020-12-30T09:52:02Z,42.805,6.029,13.2982,4.59985,2470.273,2020-12-30T11:53:02Z
2020-12-30T09:55:05Z,42.805,6.029,13.2982,4.59986,2470.297,2020-12-30T11:56:06Z
2020-12-30T09:58:09Z,42.805,6.029,13.2982,4.59986,2470.287,2020-12-30T11:59:09Z
2020-12-30T10:01:12Z,42.805,6.029,13.2982,4.59986,2470.31,2020-12-30T12:02:12Z
2020-12-30T10:04:15Z,42.805,6.029,13.2979,4.59986,2470.273,2020-12-30T12:05:15Z
2020-12-30T10:07:18Z,42.805,6.029,13.2983,4.59986,2470.287,2020-12-30T12:08:18Z
2020-12-30T10:10:21Z,42.805,6.029,13.2982,4.59985,2470.273,2020-12-30T12:11:21Z
2020-12-30T10:13:24Z,42.805,6.029,13.2981,4.59988,2470.264,2020-12-30T12:14:24Z
2020-12-30T10:16:27Z,42.805,6.029,13.2982,4.59985,2470.25,2020-12-30T12:17:27Z
2020-12-30T10:19:30Z,42.805,6.029,13.2982,4.59989,2470.25,2020-12-30T12:20:31Z
2020-12-30T10:22:34Z,42.805,6.029,13.2983,4.59986,2470.264,2020-12-30T12:23:34Z
2020-12-30T10:25:37Z,42.805,6.029,13.2982,4.59986,2470.273,2020-12-30T12:26:37Z
2020-12-30T10:28:40Z,42.805,6.029,13.2980,4.59986,2470.273,2020-12-30T12:29:40Z
2020-12-30T10:31:43Z,42.805,6.029,13.2983,4.59987,2470.273,2020-12-30T12:32:43Z
2020-12-30T10:34:46Z,42.805,6.029,13.2982,4.59988,2470.227,2020-12-30T12:35:46Z
2020-12-30T10:37:49Z,42.805,6.029,13.2985,4.59989,2470.287,2020-12-30T12:38:49Z
2020-12-30T10:40:52Z,42.805,6.029,13.2983,4.59989,2470.264,2020-12-30T12:41:52Z
2020-12-30T10:43:55Z,42.805,6.029,13.2982,4.59988,2470.273,2020-12-30T12:44:56Z
2020-12-30T10:46:59Z,42.805,6.029,13.2983,4.59987,2470.25,2020-12-30T12:47:59Z
2020-12-30T10:50:02Z,42.805,6.029,13.2984,4.59988,2470.25,2020-12-30T12:51:02Z
2020-12-30T10:53:05Z,42.805,6.029,13.2982,4.59988,2470.24,2020-12-30T12:54:05Z
2020-12-30T10:56:08Z,42.805,6.029,13.2983,4.59988,2470.227,2020-12-30T12:57:08Z
2020-12-30T10:59:11Z,42.805,6.029,13.2983,4.59988,2470.227,2020-12-30T13:00:11Z
2020-12-30T11:02:14Z,42.805,6.029,13.2982,4.59991,2470.213,2020-12-30T13:03:14Z
2020-12-30T11:05:17Z,42.805,6.029,13.2984,4.59990,2470.227,2020-12-30T13:06:17Z
2020-12-30T11:08:20Z,42.805,6.029,13.2988,4.59988,2470.264,2020-12-30T13:09:21Z
2020-12-30T11:11:24Z,42.805,6.029,13.2982,4.59986,2470.203,2020-12-30T13:12:24Z
2020-12-30T11:14:27Z,42.805,6.029,13.2985,4.59988,2470.24,2020-12-30T13:15:27Z
2020-12-30T11:17:30Z,42.805,6.029,13.2983,4.59987,2470.227,2020-12-30T13:18:30Z
2020-12-30T11:20:33Z,42.805,6.029,13.2987,4.59988,2470.203,2020-12-30T13:21:33Z
2020-12-30T11:23:36Z,42.805,6.029,13.2983,4.59987,2470.227,2020-12-30T13:24:36Z
2020-12-30T11:26:39Z,42.805,6.029,13.2984,4.59991,2470.227,2020-12-30T13:27:39Z
2020-12-30T11:29:42Z,42.805,6.029,13.2986,4.59987,2470.18,2020-12-30T13:30:42Z
2020-12-30T11:32:46Z,42.805,6.029,13.2986,4.59987,2470.18,2020-12-30T13:33:46Z
2020-12-30T11:35:49Z,42.805,6.029,13.2985,4.59987,2470.227,2020-12-30T13:36:49Z
2020-12-30T11:38:52Z,42.805,6.029,13.2982,4.59988,2470.203,2020-12-30T13:39:52Z
2020-12-30T11:41:55Z,42.805,6.029,13.2986,4.59988,2470.217,2020-12-30T13:42:55Z
2020-12-30T11:44:58Z,42.805,6.029,13.2983,4.59990,2470.194,2020-12-30T13:45:58Z
2020-12-30T11:48:01Z,42.805,6.029,13.2983,4.59988,2470.203,2020-12-30T13:49:01Z
2020-12-30T11:51:04Z,42.805,6.029,13.2990,4.59990,2470.203,2020-12-30T13:52:04Z
2020-12-30T11:54:07Z,42.805,6.029,13.2985,4.59989,2470.18,2020-12-30T13:55:08Z
2020-12-30T11:57:11Z,42.805,6.029,13.2985,4.59988,2470.217,2020-12-30T13:58:11Z
2020-12-30T12:00:14Z,42.805,6.029,13.2985,4.59989,2470.194,2020-12-30T14:01:14Z
2020-12-30T12:03:17Z,42.805,6.029,13.2986,4.59988,2470.203,2020-12-30T14:04:17Z
2020-12-30T12:06:20Z,42.805,6.029,13.2983,4.59991,2470.203,2020-12-30T14:07:20Z
2020-12-30T12:09:23Z,42.805,6.029,13.2984,4.59991,2470.18,2020-12-30T14:10:23Z
2020-12-30T12:12:26Z,42.805,6.029,13.2983,4.59990,2470.18,2020-12-30T14:13:26Z
2020-12-30T12:15:29Z,42.805,6.029,13.2986,4.59989,2470.18,2020-12-30T14:16:29Z
2020-12-30T12:18:32Z,42.805,6.029,13.2986,4.59990,2470.133,2020-12-30T14:19:33Z
2020-12-30T12:21:36Z,42.805,6.029,13.2986,4.59991,2470.171,2020-12-30T14:22:36Z
2020-12-30T12:24:39Z,42.805,6.029,13.2988,4.59994,2470.171,2020-12-30T14:25:39Z
2020-12-30T12:27:42Z,42.805,6.029,13.2987,4.59991,2470.156,2020-12-30T14:28:42Z
2020-12-30T12:30:45Z,42.805,6.029,13.2988,4.59991,2470.203,2020-12-30T14:31:45Z
2020-12-30T12:33:48Z,42.805,6.029,13.2984,4.59994,2470.194,2020-12-30T14:34:48Z
2020-12-30T12:36:51Z,42.805,6.029,13.2990,4.59991,2470.194,2020-12-30T14:37:51Z
2020-12-30T12:39:54Z,42.805,6.029,13.2986,4.59992,2470.194,2020-12-30T14:40:54Z
2020-12-30T12:42:57Z,42.805,6.029,13.2989,4.59990,2470.171,2020-12-30T14:43:58Z
2020-12-30T12:46:01Z,42.805,6.029,13.2985,4.59993,2470.194,2020-12-30T14:47:01Z
2020-12-30T12:49:04Z,42.805,6.029,13.2983,4.59990,2470.156,2020-12-30T14:50:04Z
2020-12-30T12:52:07Z,42.805,6.029,13.2989,4.59992,2470.194,2020-12-30T14:53:07Z
2020-12-30T12:55:10Z,42.805,6.029,13.2989,4.59991,2470.194,2020-12-30T14:56:10Z
2020-12-30T12:58:13Z,42.805,6.029,13.2985,4.59991,2470.156,2020-12-30T14:59:13Z
2020-12-30T13:01:16Z,42.805,6.029,13.2987,4.59991,2470.156,2020-12-30T15:02:16Z
2020-12-30T13:04:19Z,42.805,6.029,13.2988,4.59992,2470.171,2020-12-30T15:05:19Z
2020-12-30T13:07:22Z,42.805,6.029,13.2984,4.59992,2470.18,2020-12-30T15:08:23Z
2020-12-30T13:10:26Z,42.805,6.029,13.2987,4.59993,2470.171,2020-12-30T15:11:26Z
2020-12-30T13:13:29Z,42.805,6.029,13.2988,4.59994,2470.171,2020-12-30T15:14:29Z
2020-12-30T13:16:32Z,42.805,6.029,13.2990,4.59994,2470.171,2020-12-30T15:17:32Z
2020-12-30T13:19:35Z,42.805,6.029,13.2991,4.59993,2470.171,2020-12-30T15:20:35Z
2020-12-30T13:22:38Z,42.805,6.029,13.2990,4.59991,2470.147,2020-12-30T15:23:38Z
2020-12-30T13:25:41Z,42.805,6.029,13.2987,4.59995,2470.147,2020-12-30T15:26:41Z
2020-12-30T13:28:44Z,42.805,6.029,13.2991,4.59995,2470.171,2020-12-30T15:29:44Z
2020-12-30T13:31:47Z,42.805,6.029,13.2992,4.59993,2470.147,2020-12-30T15:32:48Z
2020-12-30T13:34:51Z,42.805,6.029,13.2993,4.59994,2470.156,2020-12-30T15:35:51Z
2020-12-30T13:37:54Z,42.805,6.029,13.2994,4.59996,2470.156,2020-12-30T15:38:54Z
2020-12-30T13:40:57Z,42.805,6.029,13.2992,4.59995,2470.156,2020-12-30T15:41:57Z
2020-12-30T13:44:00Z,42.805,6.029,13.2988,4.59994,2470.133,2020-12-30T15:45:00Z
2020-12-30T13:47:03Z,42.805,6.029,13.2990,4.59995,2470.147,2020-12-30T15:48:03Z
2020-12-30T13:50:06Z,42.805,6.029,13.2993,4.59996,2470.147,2020-12-30T15:51:06Z
2020-12-30T13:53:09Z,42.805,6.029,13.2991,4.59996,2470.156,2020-12-30T15:54:09Z
2020-12-30T13:56:12Z,42.805,6.029,13.2994,4.59995,2470.147,2020-12-30T15:57:13Z
2020-12-30T13:59:16Z,42.805,6.029,13.2991,4.59996,2470.11,2020-12-30T16:00:16Z
2020-12-30T14:02:19Z,42.805,6.029,13.2991,4.59998,2470.133,2020-12-30T16:03:19Z
2020-12-30T14:05:22Z,42.805,6.029,13.2990,4.59996,2470.133,2020-12-30T16:06:22Z
2020-12-30T14:08:25Z,42.805,6.029,13.2995,4.59997,2470.156,2020-12-30T16:09:25Z
2020-12-30T14:11:28Z,42.805,6.029,13.2994,4.59999,2470.156,2020-12-30T16:12:28Z
2020-12-30T14:14:31Z,42.805,6.029,13.2993,4.59998,2470.133,2020-12-30T16:15:31Z
2020-12-30T14:17:34Z,42.805,6.029,13.2993,4.59999,2470.133,2020-12-30T16:18:34Z
2020-12-30T14:20:37Z,42.805,6.029,13.2991,4.59997,2470.124,2020-12-30T16:21:38Z
2020-12-30T14:23:41Z,42.805,6.029,13.2993,4.59998,2470.119,2020-12-30T16:24:41Z
2020-12-30T14:26:44Z,42.805,6.029,13.2993,4.60000,2470.133,2020-12-30T16:27:44Z
2020-12-30T14:29:47Z,42.805,6.029,13.2993,4.59998,2470.133,2020-12-30T16:30:47Z
2020-12-30T14:32:50Z,42.805,6.029,13.2991,4.59999,2470.156,2020-12-30T16:33:50Z
2020-12-30T14:35:53Z,42.805,6.029,13.2990,4.60000,2470.133,2020-12-30T16:36:53Z
2020-12-30T14:38:56Z,42.805,6.029,13.2991,4.59999,2470.096,2020-12-30T16:39:56Z
2020-12-30T14:41:59Z,42.805,6.029,13.2993,4.59998,2470.147,2020-12-30T16:43:00Z
2020-12-30T14:45:03Z,42.805,6.029,13.2993,4.60004,2470.133,2020-12-30T16:46:03Z
2020-12-30T14:48:06Z,42.805,6.029,13.2996,4.60000,2470.1,2020-12-30T16:49:06Z
2020-12-30T14:51:09Z,42.805,6.029,13.2995,4.60000,2470.171,2020-12-30T16:52:09Z
2020-12-30T14:54:12Z,42.805,6.029,13.2993,4.60000,2470.156,2020-12-30T16:55:12Z
2020-12-30T14:57:15Z,42.805,6.029,13.2995,4.60000,2470.11,2020-12-30T16:58:15Z
2020-12-30T15:00:18Z,42.805,6.029,13.2994,4.60000,2470.133,2020-12-30T17:01:18Z
2020-12-30T15:03:21Z,42.805,6.029,13.2994,4.60001,2470.171,2020-12-30T17:04:21Z